Location: Hilton Head Island
(32.2163°N, 80.7526°W)
Time: 09:07:40
(UTC-04:00)

Explorer 7 - Pass Details

Date: 25 February 2026
Orbit: 430 x 541 km, 50.2° (Epoch: 11 March)

Event Time Altitude Azimuth Distance (km) Brightness Sun altitude
Rises 13:07:36 0° 278° (W) 2,390 10.1 48.2°
Reaches altitude 10° 13:11:02 10° 315° (NW) 1,535 9.0 48.1°
Maximum altitude 13:12:10 11° 334° (NNW) 1,465 8.8 48.0°
Drops below altitude 10° 13:13:18 10° 354° (N) 1,546 8.8 47.9°
Sets 13:16:48 0° 30° (NNE) 2,440 9.7 47.8°
